Location: Dayton
(39.7590°N, 84.1920°W)
Time: 19:58:23
(UTC-04:00)

ATLAS CENTAUR R/B - Visible Passes

Search period start: 18 April 2014 00:00
Search period end: 28 April 2014 00:00
Orbit: 233 x 9761 km, 57.4° (Epoch: 19 December)

Date Brightness Start Highest point End Pass type
(mag) Time Alt. Az. Time Alt. Az. Time Alt. Az.
18 Apr 7.0 00:03:05 20° ESE 00:15:04 25° E 00:51:29 10° NE visible
18 Apr 6.2 03:20:23 46° SSW 03:35:19 88° SE 04:46:03 10° NE visible
18 Apr 7.3 23:06:52 10° E 23:18:51 13° ENE 23:35:07 10° NE visible
19 Apr 6.1 02:21:17 51° S 02:32:09 71° ESE 03:37:17 10° NE visible
19 Apr 7.0 05:38:32 11° W 06:20:09 63° NNW 07:29:30 10° ENE visible
20 Apr 6.3 01:21:56 44° SE 01:31:08 53° E 02:28:13 10° NE visible
20 Apr 6.7 04:39:09 24° WSW 05:07:35 69° NNW 06:21:04 10° ENE visible
21 Apr 6.6 00:22:19 31° ESE 00:31:51 36° E 01:18:19 10° NE visible
21 Apr 6.4 03:39:30 37° SW 03:58:36 80° NW 05:11:40 10° NE visible
21 Apr 6.9 23:22:27 18° ESE 23:33:53 22° ENE 00:06:17 10° NE visible
22 Apr 6.1 02:39:36 49° SSW 02:52:33 85° ESE 04:01:51 10° NE visible
22 Apr 7.2 06:00:16 10° W 06:50:06 61° N 07:53:25 10° E visible
22 Apr 7.3 22:31:07 10° ENE 22:37:03 11° ENE 22:43:54 10° ENE visible
23 Apr 6.1 01:39:26 52° SSE 01:48:59 67° ESE 02:51:51 10° NE visible
23 Apr 7.0 04:56:32 14° W 05:33:50 64° NNW 06:44:57 10° ENE visible
24 Apr 6.3 00:39:01 41° SE 00:47:32 49° E 01:41:32 10° NE visible
24 Apr 6.6 03:56:05 27° WSW 04:21:15 71° NNW 05:35:00 10° ENE visible
24 Apr 6.6 23:38:20 27° ESE 23:47:46 32° E 00:30:14 10° NE visible
25 Apr 6.3 02:55:21 40° SW 03:12:10 83° NW 04:24:12 10° NE visible
25 Apr 6.9 22:37:23 14° E 22:49:16 19° ENE 23:16:03 10° NE visible
26 Apr 6.0 01:54:23 51° SSW 02:05:57 81° ESE 03:13:07 10° NE visible
26 Apr 7.2 05:13:49 10° W 05:59:24 61° N 07:05:57 10° E visible
27 Apr 6.0 00:53:08 49° SSE 01:02:09 62° ESE 02:01:55 10° NE visible
27 Apr 6.9 04:10:04 16° WSW 04:43:12 65° NNW 05:55:50 10° ENE visible
27 Apr 6.3 23:51:37 37° SE 00:00:00 43° E 00:00:00 43° E visible
